owner,sensor,date,latitude,longitude,relative_humidity,qcFlag 
DISL,ioos:station:DISL:KATA:1,2013-08-01T00:00:00Z,30.2583,-88.2131,78.21,1111122 
DISL,ioos:station:DISL:KATA:1,2013-08-01T00:30:00Z,30.2583,-88.2131,78.25,1111122 
DISL,ioos:station:DISL:KATA:1,2013-08-01T01:00:00Z,30.2583,-88.2131,81.3,1111122 
DISL,ioos:station:DISL:KATA:1,2013-08-01T01:30:00Z,30.2583,-88.2131,79.06,1111122 
DISL,ioos:station:DISL:KATA:1,2013-08-01T02:00:00Z,30.2583,-88.2131,79.03,1111122 
DISL,ioos:station:DISL:KATA:1,2013-08-01T02:30:00Z,30.2583,-88.2131,78.38,1111122 
DISL,ioos:station:DISL:KATA:1,2013-08-01T03:00:00Z,30.2583,-88.2131,77.26,1111122 
DISL,ioos:station:DISL:KATA:1,2013-08-01T03:30:00Z,30.2583,-88.2131,75.53,1111122 
DISL,ioos:station:DISL:KATA:1,2013-08-01T04:00:00Z,30.2583,-88.2131,76.45,1111122 
DISL,ioos:station:DISL:KATA:1,2013-08-01T04:30:00Z,30.2583,-88.2131,77.87,1111122 
DISL,ioos:station:DISL:KATA:1,2013-08-01T05:00:00Z,30.2583,-88.2131,78.35,1111122 
DISL,ioos:station:DISL:KATA:1,2013-08-01T05:30:00Z,30.2583,-88.2131,78.72,1111122 
DISL,ioos:station:DISL:KATA:1,2013-08-01T06:00:00Z,30.2583,-88.2131,76.24,1111122 
DISL,ioos:station:DISL:KATA:1,2013-08-01T06:30:00Z,30.2583,-88.2131,76.07,1111122 
DISL,ioos:station:DISL:KATA:1,2013-08-01T07:00:00Z,30.2583,-88.2131,77.23,1111122 
DISL,ioos:station:DISL:KATA:1,2013-08-01T07:30:00Z,30.2583,-88.2131,76.07,1111122 
DISL,ioos:station:DISL:KATA:1,2013-08-01T08:00:00Z,30.2583,-88.2131,77.8,1111122 
DISL,ioos:station:DISL:KATA:1,2013-08-01T08:30:00Z,30.2583,-88.2131,77.26,1111122 
DISL,ioos:station:DISL:KATA:1,2013-08-01T09:00:00Z,30.2583,-88.2131,76.34,1111122 
DISL,ioos:station:DISL:KATA:1,2013-08-01T09:30:00Z,30.2583,-88.2131,79.02,1111122 
DISL,ioos:station:DISL:KATA:1,2013-08-01T10:00:00Z,30.2583,-88.2131,78.31,1111122 
DISL,ioos:station:DISL:KATA:1,2013-08-01T10:30:00Z,30.2583,-88.2131,77.93,1111122 
DISL,ioos:station:DISL:KATA:1,2013-08-01T11:00:00Z,30.2583,-88.2131,80.9,1111122 
DISL,ioos:station:DISL:KATA:1,2013-08-01T11:30:00Z,30.2583,-88.2131,79.47,1111122 
DISL,ioos:station:DISL:KATA:1,2013-08-01T12:00:00Z,30.2583,-88.2131,78.96,1111122 
DISL,ioos:station:DISL:KATA:1,2013-08-01T12:30:00Z,30.2583,-88.2131,78.62,1111122 
DISL,ioos:station:DISL:KATA:1,2013-08-01T13:00:00Z,30.2583,-88.2131,75.06,1111122 
DISL,ioos:station:DISL:KATA:1,2013-08-01T13:30:00Z,30.2583,-88.2131,70.74,1111122 
DISL,ioos:station:DISL:KATA:1,2013-08-01T14:00:00Z,30.2583,-88.2131,71.93,1111122 
DISL,ioos:station:DISL:KATA:1,2013-08-01T14:30:00Z,30.2583,-88.2131,73.19,1111122 
DISL,ioos:station:DISL:KATA:1,2013-08-01T15:00:00Z,30.2583,-88.2131,72.94,1111122 
DISL,ioos:station:DISL:KATA:1,2013-08-01T15:30:00Z,30.2583,-88.2131,64.52,1111122 
DISL,ioos:station:DISL:KATA:1,2013-08-01T16:00:00Z,30.2583,-88.2131,68.65,1111122 
DISL,ioos:station:DISL:KATA:1,2013-08-01T16:30:00Z,30.2583,-88.2131,68.14,1111122 
DISL,ioos:station:DISL:KATA:1,2013-08-01T17:00:00Z,30.2583,-88.2131,70.58,1111122 
DISL,ioos:station:DISL:KATA:1,2013-08-01T17:30:00Z,30.2583,-88.2131,70.34,1111122 
DISL,ioos:station:DISL:KATA:1,2013-08-01T18:00:00Z,30.2583,-88.2131,72.01,1111122 
DISL,ioos:station:DISL:KATA:1,2013-08-01T18:30:00Z,30.2583,-88.2131,69.94,1111122 
DISL,ioos:station:DISL:KATA:1,2013-08-01T19:00:00Z,30.2583,-88.2131,72.72,1111122 
DISL,ioos:station:DISL:KATA:1,2013-08-01T19:30:00Z,30.2583,-88.2131,73.33,1111122 
DISL,ioos:station:DISL:KATA:1,2013-08-01T20:00:00Z,30.2583,-88.2131,71.06,1111122 
DISL,ioos:station:DISL:KATA:1,2013-08-01T20:30:00Z,30.2583,-88.2131,76.72,1111122 
DISL,ioos:station:DISL:KATA:1,2013-08-01T21:00:00Z,30.2583,-88.2131,84.7,1111122 
DISL,ioos:station:DISL:KATA:1,2013-08-01T21:30:00Z,30.2583,-88.2131,80.9,1111122 
DISL,ioos:station:DISL:KATA:1,2013-08-01T22:00:00Z,30.2583,-88.2131,77.47,1111122 
DISL,ioos:station:DISL:KATA:1,2013-08-01T22:30:00Z,30.2583,-88.2131,76.04,1111122 
DISL,ioos:station:DISL:KATA:1,2013-08-01T23:00:00Z,30.2583,-88.2131,76.48,1111122 
DISL,ioos:station:DISL:KATA:1,2013-08-01T23:30:00Z,30.2583,-88.2131,83.3,1111122 
DISL,ioos:station:DISL:KATA:1,2013-08-02T00:00:00Z,30.2583,-88.2131,83.5,1111122 
DISL,ioos:station:DISL:KATA:1,2013-08-02T00:30:00Z,30.2583,-88.2131,80.8,1111122 
DISL,ioos:station:DISL:KATA:1,2013-08-02T01:00:00Z,30.2583,-88.2131,81.8,1111122 
DISL,ioos:station:DISL:KATA:1,2013-08-02T01:30:00Z,30.2583,-88.2131,83.6,1111122 
DISL,ioos:station:DISL:KATA:1,2013-08-02T02:00:00Z,30.2583,-88.2131,80.9,1111122 
DISL,ioos:station:DISL:KATA:1,2013-08-02T02:30:00Z,30.2583,-88.2131,72.88,1111122 
DISL,ioos:station:DISL:KATA:1,2013-08-02T03:00:00Z,30.2583,-88.2131,74.51,1111122 
DISL,ioos:station:DISL:KATA:1,2013-08-02T03:30:00Z,30.2583,-88.2131,75.06,1111122 
DISL,ioos:station:DISL:KATA:1,2013-08-02T04:00:00Z,30.2583,-88.2131,74.55,1111122 
DISL,ioos:station:DISL:KATA:1,2013-08-02T04:30:00Z,30.2583,-88.2131,77.67,1111122 
DISL,ioos:station:DISL:KATA:1,2013-08-02T05:00:00Z,30.2583,-88.2131,82.2,1111122 
DISL,ioos:station:DISL:KATA:1,2013-08-02T05:30:00Z,30.2583,-88.2131,80.4,1111122 
DISL,ioos:station:DISL:KATA:1,2013-08-02T06:00:00Z,30.2583,-88.2131,81.5,1111122 
DISL,ioos:station:DISL:KATA:1,2013-08-02T06:30:00Z,30.2583,-88.2131,83.4,1111122 
DISL,ioos:station:DISL:KATA:1,2013-08-02T07:00:00Z,30.2583,-88.2131,85.5,1111122 
DISL,ioos:station:DISL:KATA:1,2013-08-02T07:30:00Z,30.2583,-88.2131,86.8,1111122 
DISL,ioos:station:DISL:KATA:1,2013-08-02T08:00:00Z,30.2583,-88.2131,87.2,1111122 
DISL,ioos:station:DISL:KATA:1,2013-08-02T08:30:00Z,30.2583,-88.2131,87.5,1111122 
DISL,ioos:station:DISL:KATA:1,2013-08-02T09:00:00Z,30.2583,-88.2131,87.3,1111122 
DISL,ioos:station:DISL:KATA:1,2013-08-02T09:30:00Z,30.2583,-88.2131,89.9,1111122 
DISL,ioos:station:DISL:KATA:1,2013-08-02T10:00:00Z,30.2583,-88.2131,90.2,1111122 
DISL,ioos:station:DISL:KATA:1,2013-08-02T10:30:00Z,30.2583,-88.2131,90.9,1111122 
DISL,ioos:station:DISL:KATA:1,2013-08-02T11:00:00Z,30.2583,-88.2131,89.9,1111122 
DISL,ioos:station:DISL:KATA:1,2013-08-02T11:30:00Z,30.2583,-88.2131,89.0,1111122 
DISL,ioos:station:DISL:KATA:1,2013-08-02T12:00:00Z,30.2583,-88.2131,85.1,1111122 
DISL,ioos:station:DISL:KATA:1,2013-08-02T12:30:00Z,30.2583,-88.2131,80.6,1111122 
DISL,ioos:station:DISL:KATA:1,2013-08-02T13:00:00Z,30.2583,-88.2131,77.13,1111122 
DISL,ioos:station:DISL:KATA:1,2013-08-02T13:30:00Z,30.2583,-88.2131,78.08,1111122 
DISL,ioos:station:DISL:KATA:1,2013-08-02T14:00:00Z,30.2583,-88.2131,77.7,1111122 
DISL,ioos:station:DISL:KATA:1,2013-08-02T14:30:00Z,30.2583,-88.2131,78.28,1111122 
DISL,ioos:station:DISL:KATA:1,2013-08-02T15:00:00Z,30.2583,-88.2131,76.14,1111122 
DISL,ioos:station:DISL:KATA:1,2013-08-02T15:30:00Z,30.2583,-88.2131,75.31,1111122 
DISL,ioos:station:DISL:KATA:1,2013-08-02T16:00:00Z,30.2583,-88.2131,74.32,1111122 
DISL,ioos:station:DISL:KATA:1,2013-08-02T16:30:00Z,30.2583,-88.2131,71.57,1111122 
DISL,ioos:station:DISL:KATA:1,2013-08-02T17:00:00Z,30.2583,-88.2131,73.43,1111122 
DISL,ioos:station:DISL:KATA:1,2013-08-02T17:30:00Z,30.2583,-88.2131,72.28,1111122 
DISL,ioos:station:DISL:KATA:1,2013-08-02T18:00:00Z,30.2583,-88.2131,70.62,1111122 
DISL,ioos:station:DISL:KATA:1,2013-08-02T18:30:00Z,30.2583,-88.2131,70.34,1111122 
DISL,ioos:station:DISL:KATA:1,2013-08-02T19:00:00Z,30.2583,-88.2131,71.4,1111122 
DISL,ioos:station:DISL:KATA:1,2013-08-02T19:30:00Z,30.2583,-88.2131,73.43,1111122 
DISL,ioos:station:DISL:KATA:1,2013-08-02T20:00:00Z,30.2583,-88.2131,71.7,1111122 
DISL,ioos:station:DISL:KATA:1,2013-08-02T20:30:00Z,30.2583,-88.2131,73.81,1111122 
DISL,ioos:station:DISL:KATA:1,2013-08-02T21:00:00Z,30.2583,-88.2131,74.35,1111122 
DISL,ioos:station:DISL:KATA:1,2013-08-02T21:30:00Z,30.2583,-88.2131,74.52,1111122 
DISL,ioos:station:DISL:KATA:1,2013-08-02T22:00:00Z,30.2583,-88.2131,75.88,1111122 
DISL,ioos:station:DISL:KATA:1,2013-08-02T22:30:00Z,30.2583,-88.2131,76.49,1111122 
DISL,ioos:station:DISL:KATA:1,2013-08-02T23:00:00Z,30.2583,-88.2131,76.39,1111122 
DISL,ioos:station:DISL:KATA:1,2013-08-02T23:30:00Z,30.2583,-88.2131,75.91,1111122 
DISL,ioos:station:DISL:KATA:1,2013-08-03T00:00:00Z,30.2583,-88.2131,76.35,1111122 
DISL,ioos:station:DISL:KATA:1,2013-08-03T00:30:00Z,30.2583,-88.2131,77.24,1111122 
DISL,ioos:station:DISL:KATA:1,2013-08-03T01:00:00Z,30.2583,-88.2131,77.19,1111122 
DISL,ioos:station:DISL:KATA:1,2013-08-03T01:30:00Z,30.2583,-88.2131,75.36,1111122 
DISL,ioos:station:DISL:KATA:1,2013-08-03T02:00:00Z,30.2583,-88.2131,76.48,1111122 
DISL,ioos:station:DISL:KATA:1,2013-08-03T02:30:00Z,30.2583,-88.2131,76.41,1111122 
DISL,ioos:station:DISL:KATA:1,2013-08-03T03:00:00Z,30.2583,-88.2131,78.45,1111122 
DISL,ioos:station:DISL:KATA:1,2013-08-03T03:30:00Z,30.2583,-88.2131,78.69,1111122 
DISL,ioos:station:DISL:KATA:1,2013-08-03T04:00:00Z,30.2583,-88.2131,78.21,1111122 
DISL,ioos:station:DISL:KATA:1,2013-08-03T04:30:00Z,30.2583,-88.2131,77.84,1111122 
DISL,ioos:station:DISL:KATA:1,2013-08-03T05:00:00Z,30.2583,-88.2131,78.35,1111122 
DISL,ioos:station:DISL:KATA:1,2013-08-03T05:30:00Z,30.2583,-88.2131,76.96,1111122 
DISL,ioos:station:DISL:KATA:1,2013-08-03T06:00:00Z,30.2583,-88.2131,78.28,1111122 
DISL,ioos:station:DISL:KATA:1,2013-08-03T06:30:00Z,30.2583,-88.2131,78.82,1111122 
DISL,ioos:station:DISL:KATA:1,2013-08-03T07:00:00Z,30.2583,-88.2131,79.2,1111122 
DISL,ioos:station:DISL:KATA:1,2013-08-03T07:30:00Z,30.2583,-88.2131,78.38,1111122 
DISL,ioos:station:DISL:KATA:1,2013-08-03T08:00:00Z,30.2583,-88.2131,79.61,1111122 
DISL,ioos:station:DISL:KATA:1,2013-08-03T08:30:00Z,30.2583,-88.2131,78.32,1111122 
DISL,ioos:station:DISL:KATA:1,2013-08-03T09:00:00Z,30.2583,-88.2131,78.38,1111122 
DISL,ioos:station:DISL:KATA:1,2013-08-03T09:30:00Z,30.2583,-88.2131,78.72,1111122 
DISL,ioos:station:DISL:KATA:1,2013-08-03T10:00:00Z,30.2583,-88.2131,78.55,1111122 
DISL,ioos:station:DISL:KATA:1,2013-08-03T10:30:00Z,30.2583,-88.2131,77.84,1111122 
DISL,ioos:station:DISL:KATA:1,2013-08-03T11:00:00Z,30.2583,-88.2131,75.6,1111122 
DISL,ioos:station:DISL:KATA:1,2013-08-03T11:30:00Z,30.2583,-88.2131,76.65,1111122 
DISL,ioos:station:DISL:KATA:1,2013-08-03T12:00:00Z,30.2583,-88.2131,74.82,1111122 
DISL,ioos:station:DISL:KATA:1,2013-08-03T12:30:00Z,30.2583,-88.2131,75.22,1111122 
DISL,ioos:station:DISL:KATA:1,2013-08-03T13:00:00Z,30.2583,-88.2131,82.0,1111122 
DISL,ioos:station:DISL:KATA:1,2013-08-03T13:30:00Z,30.2583,-88.2131,79.7,1111122 
DISL,ioos:station:DISL:KATA:1,2013-08-03T14:00:00Z,30.2583,-88.2131,78.13,1111122 
DISL,ioos:station:DISL:KATA:1,2013-08-03T14:30:00Z,30.2583,-88.2131,76.39,1111122 
DISL,ioos:station:DISL:KATA:1,2013-08-03T15:00:00Z,30.2583,-88.2131,77.41,1111122 
DISL,ioos:station:DISL:KATA:1,2013-08-03T15:30:00Z,30.2583,-88.2131,75.34,1111122 
DISL,ioos:station:DISL:KATA:1,2013-08-03T16:00:00Z,30.2583,-88.2131,74.1,1111122 
DISL,ioos:station:DISL:KATA:1,2013-08-03T16:30:00Z,30.2583,-88.2131,69.35,1111122 
DISL,ioos:station:DISL:KATA:1,2013-08-03T17:00:00Z,30.2583,-88.2131,69.52,1111122 
DISL,ioos:station:DISL:KATA:1,2013-08-03T17:30:00Z,30.2583,-88.2131,67.62,1111122 
DISL,ioos:station:DISL:KATA:1,2013-08-03T18:00:00Z,30.2583,-88.2131,64.23,1111122 
DISL,ioos:station:DISL:KATA:1,2013-08-03T18:30:00Z,30.2583,-88.2131,70.47,1111122 
DISL,ioos:station:DISL:KATA:1,2013-08-03T19:00:00Z,30.2583,-88.2131,69.05,1111122 
DISL,ioos:station:DISL:KATA:1,2013-08-03T19:30:00Z,30.2583,-88.2131,68.44,1111122 
DISL,ioos:station:DISL:KATA:1,2013-08-03T20:00:00Z,30.2583,-88.2131,66.07,1111122 
DISL,ioos:station:DISL:KATA:1,2013-08-03T20:30:00Z,30.2583,-88.2131,68.75,1111122 
DISL,ioos:station:DISL:KATA:1,2013-08-03T21:00:00Z,30.2583,-88.2131,64.78,1111122 
DISL,ioos:station:DISL:KATA:1,2013-08-03T21:30:00Z,30.2583,-88.2131,70.07,1111122 
DISL,ioos:station:DISL:KATA:1,2013-08-03T22:00:00Z,30.2583,-88.2131,70.21,1111122 
DISL,ioos:station:DISL:KATA:1,2013-08-03T22:30:00Z,30.2583,-88.2131,70.34,1111122 
DISL,ioos:station:DISL:KATA:1,2013-08-03T23:00:00Z,30.2583,-88.2131,69.36,1111122 
DISL,ioos:station:DISL:KATA:1,2013-08-03T23:30:00Z,30.2583,-88.2131,72.96,1111122 
DISL,ioos:station:DISL:KATA:1,2013-08-04T00:00:00Z,30.2583,-88.2131,73.2,1111122 
DISL,ioos:station:DISL:KATA:1,2013-08-04T00:30:00Z,30.2583,-88.2131,74.08,1111122 
DISL,ioos:station:DISL:KATA:1,2013-08-04T01:00:00Z,30.2583,-88.2131,72.66,1111122 
DISL,ioos:station:DISL:KATA:1,2013-08-04T01:30:00Z,30.2583,-88.2131,73.59,1111122 
DISL,ioos:station:DISL:KATA:1,2013-08-04T02:00:00Z,30.2583,-88.2131,74.37,1111122 
DISL,ioos:station:DISL:KATA:1,2013-08-04T02:30:00Z,30.2583,-88.2131,72.71,1111122 
DISL,ioos:station:DISL:KATA:1,2013-08-04T03:00:00Z,30.2583,-88.2131,74.54,1111122 
DISL,ioos:station:DISL:KATA:1,2013-08-04T03:30:00Z,30.2583,-88.2131,75.36,1111122 
DISL,ioos:station:DISL:KATA:1,2013-08-04T04:00:00Z,30.2583,-88.2131,75.8,1111122 
DISL,ioos:station:DISL:KATA:1,2013-08-04T04:30:00Z,30.2583,-88.2131,72.68,1111122 
DISL,ioos:station:DISL:KATA:1,2013-08-04T05:00:00Z,30.2583,-88.2131,73.76,1111122 
DISL,ioos:station:DISL:KATA:1,2013-08-04T05:30:00Z,30.2583,-88.2131,74.71,1111122 
DISL,ioos:station:DISL:KATA:1,2013-08-04T06:00:00Z,30.2583,-88.2131,73.25,1111122 
DISL,ioos:station:DISL:KATA:1,2013-08-04T06:30:00Z,30.2583,-88.2131,73.49,1111122 
DISL,ioos:station:DISL:KATA:1,2013-08-04T07:00:00Z,30.2583,-88.2131,71.89,1111122 
DISL,ioos:station:DISL:KATA:1,2013-08-04T07:30:00Z,30.2583,-88.2131,71.86,1111122 
DISL,ioos:station:DISL:KATA:1,2013-08-04T08:00:00Z,30.2583,-88.2131,71.32,1111122 
DISL,ioos:station:DISL:KATA:1,2013-08-04T08:30:00Z,30.2583,-88.2131,70.94,1111122 
DISL,ioos:station:DISL:KATA:1,2013-08-04T09:00:00Z,30.2583,-88.2131,71.89,1111122 
DISL,ioos:station:DISL:KATA:1,2013-08-04T09:30:00Z,30.2583,-88.2131,73.62,1111122 
DISL,ioos:station:DISL:KATA:1,2013-08-04T10:00:00Z,30.2583,-88.2131,78.17,1111122 
DISL,ioos:station:DISL:KATA:1,2013-08-04T10:30:00Z,30.2583,-88.2131,83.7,1111122 
DISL,ioos:station:DISL:KATA:1,2013-08-04T11:00:00Z,30.2583,-88.2131,82.2,1111122 
DISL,ioos:station:DISL:KATA:1,2013-08-04T11:30:00Z,30.2583,-88.2131,84.2,1111122 
DISL,ioos:station:DISL:KATA:1,2013-08-04T12:00:00Z,30.2583,-88.2131,82.1,1111122 
DISL,ioos:station:DISL:KATA:1,2013-08-04T12:30:00Z,30.2583,-88.2131,82.5,1111122 
DISL,ioos:station:DISL:KATA:1,2013-08-04T13:00:00Z,30.2583,-88.2131,82.4,1111122 
DISL,ioos:station:DISL:KATA:1,2013-08-04T13:30:00Z,30.2583,-88.2131,81.9,1111122 
DISL,ioos:station:DISL:KATA:1,2013-08-04T14:00:00Z,30.2583,-88.2131,81.0,1111122 
DISL,ioos:station:DISL:KATA:1,2013-08-04T14:30:00Z,30.2583,-88.2131,81.6,1111122 
DISL,ioos:station:DISL:KATA:1,2013-08-04T15:00:00Z,30.2583,-88.2131,76.98,1111122 
DISL,ioos:station:DISL:KATA:1,2013-08-04T15:30:00Z,30.2583,-88.2131,71.87,1111122 
DISL,ioos:station:DISL:KATA:1,2013-08-04T16:00:00Z,30.2583,-88.2131,69.46,1111122 
DISL,ioos:station:DISL:KATA:1,2013-08-04T16:30:00Z,30.2583,-88.2131,68.54,1111122 
DISL,ioos:station:DISL:KATA:1,2013-08-04T17:00:00Z,30.2583,-88.2131,65.85,1111122 
DISL,ioos:station:DISL:KATA:1,2013-08-04T17:30:00Z,30.2583,-88.2131,67.82,1111122 
DISL,ioos:station:DISL:KATA:1,2013-08-04T18:00:00Z,30.2583,-88.2131,67.42,1111122 
DISL,ioos:station:DISL:KATA:1,2013-08-04T18:30:00Z,30.2583,-88.2131,68.71,1111122 
DISL,ioos:station:DISL:KATA:1,2013-08-04T19:00:00Z,30.2583,-88.2131,66.33,1111122 
DISL,ioos:station:DISL:KATA:1,2013-08-04T19:30:00Z,30.2583,-88.2131,72.95,1111122 
DISL,ioos:station:DISL:KATA:1,2013-08-04T20:00:00Z,30.2583,-88.2131,69.93,1111122 
DISL,ioos:station:DISL:KATA:1,2013-08-04T20:30:00Z,30.2583,-88.2131,66.85,1111122 
DISL,ioos:station:DISL:KATA:1,2013-08-04T21:00:00Z,30.2583,-88.2131,68.27,1111122 
DISL,ioos:station:DISL:KATA:1,2013-08-04T21:30:00Z,30.2583,-88.2131,69.94,1111122 
DISL,ioos:station:DISL:KATA:1,2013-08-04T22:00:00Z,30.2583,-88.2131,67.19,1111122 
DISL,ioos:station:DISL:KATA:1,2013-08-04T22:30:00Z,30.2583,-88.2131,69.7,1111122 
DISL,ioos:station:DISL:KATA:1,2013-08-04T23:00:00Z,30.2583,-88.2131,66.61,1111122 
DISL,ioos:station:DISL:KATA:1,2013-08-04T23:30:00Z,30.2583,-88.2131,68.82,1111122 
DISL,ioos:station:DISL:KATA:1,2013-08-05T00:00:00Z,30.2583,-88.2131,74.83,1111122 
DISL,ioos:station:DISL:KATA:1,2013-08-05T00:30:00Z,30.2583,-88.2131,75.59,1111122 
DISL,ioos:station:DISL:KATA:1,2013-08-05T01:00:00Z,30.2583,-88.2131,68.3,1111122 
DISL,ioos:station:DISL:KATA:1,2013-08-05T01:30:00Z,30.2583,-88.2131,68.06,1111122 
DISL,ioos:station:DISL:KATA:1,2013-08-05T02:00:00Z,30.2583,-88.2131,64.73,1111122 
DISL,ioos:station:DISL:KATA:1,2013-08-05T02:30:00Z,30.2583,-88.2131,69.86,1111122 
DISL,ioos:station:DISL:KATA:1,2013-08-05T03:00:00Z,30.2583,-88.2131,70.54,1111122 
DISL,ioos:station:DISL:KATA:1,2013-08-05T03:30:00Z,30.2583,-88.2131,71.29,1111122 
DISL,ioos:station:DISL:KATA:1,2013-08-05T04:00:00Z,30.2583,-88.2131,69.21,1111122 
DISL,ioos:station:DISL:KATA:1,2013-08-05T04:30:00Z,30.2583,-88.2131,68.74,1111122 
DISL,ioos:station:DISL:KATA:1,2013-08-05T05:00:00Z,30.2583,-88.2131,71.46,1111122 
DISL,ioos:station:DISL:KATA:1,2013-08-05T05:30:00Z,30.2583,-88.2131,70.64,1111122 
DISL,ioos:station:DISL:KATA:1,2013-08-05T06:00:00Z,30.2583,-88.2131,69.93,1111122 
DISL,ioos:station:DISL:KATA:1,2013-08-05T06:30:00Z,30.2583,-88.2131,69.52,1111122 
DISL,ioos:station:DISL:KATA:1,2013-08-05T07:00:00Z,30.2583,-88.2131,70.88,1111122 
DISL,ioos:station:DISL:KATA:1,2013-08-05T07:30:00Z,30.2583,-88.2131,72.03,1111122 
DISL,ioos:station:DISL:KATA:1,2013-08-05T08:00:00Z,30.2583,-88.2131,74.1,1111122 
DISL,ioos:station:DISL:KATA:1,2013-08-05T08:30:00Z,30.2583,-88.2131,74.44,1111122 
DISL,ioos:station:DISL:KATA:1,2013-08-05T09:00:00Z,30.2583,-88.2131,74.61,1111122 
DISL,ioos:station:DISL:KATA:1,2013-08-05T09:30:00Z,30.2583,-88.2131,75.63,1111122 
DISL,ioos:station:DISL:KATA:1,2013-08-05T10:00:00Z,30.2583,-88.2131,75.94,1111122 
DISL,ioos:station:DISL:KATA:1,2013-08-05T10:30:00Z,30.2583,-88.2131,76.89,1111122 
DISL,ioos:station:DISL:KATA:1,2013-08-05T11:00:00Z,30.2583,-88.2131,75.12,1111122 
DISL,ioos:station:DISL:KATA:1,2013-08-05T11:30:00Z,30.2583,-88.2131,76.41,1111122 
DISL,ioos:station:DISL:KATA:1,2013-08-05T12:00:00Z,30.2583,-88.2131,77.3,1111122 
DISL,ioos:station:DISL:KATA:1,2013-08-05T12:30:00Z,30.2583,-88.2131,80.7,1111122 
DISL,ioos:station:DISL:KATA:1,2013-08-05T13:00:00Z,30.2583,-88.2131,81.1,1111122 
DISL,ioos:station:DISL:KATA:1,2013-08-05T13:30:00Z,30.2583,-88.2131,81.0,1111122 
DISL,ioos:station:DISL:KATA:1,2013-08-05T14:00:00Z,30.2583,-88.2131,80.4,1111122 
DISL,ioos:station:DISL:KATA:1,2013-08-05T14:30:00Z,30.2583,-88.2131,77.35,1111122 
DISL,ioos:station:DISL:KATA:1,2013-08-05T15:00:00Z,30.2583,-88.2131,80.5,1111122 
DISL,ioos:station:DISL:KATA:1,2013-08-05T15:30:00Z,30.2583,-88.2131,77.37,1111122 
DISL,ioos:station:DISL:KATA:1,2013-08-05T16:00:00Z,30.2583,-88.2131,72.96,1111122 
DISL,ioos:station:DISL:KATA:1,2013-08-05T16:30:00Z,30.2583,-88.2131,71.59,1111122 
DISL,ioos:station:DISL:KATA:1,2013-08-05T17:00:00Z,30.2583,-88.2131,70.81,1111122 
DISL,ioos:station:DISL:KATA:1,2013-08-05T17:30:00Z,30.2583,-88.2131,70.84,1111122 
DISL,ioos:station:DISL:KATA:1,2013-08-05T18:00:00Z,30.2583,-88.2131,70.3,1111122 
DISL,ioos:station:DISL:KATA:1,2013-08-05T18:30:00Z,30.2583,-88.2131,68.27,1111122 
DISL,ioos:station:DISL:KATA:1,2013-08-05T19:00:00Z,30.2583,-88.2131,68.81,1111122 
DISL,ioos:station:DISL:KATA:1,2013-08-05T19:30:00Z,30.2583,-88.2131,68.61,1111122 
DISL,ioos:station:DISL:KATA:1,2013-08-05T20:00:00Z,30.2583,-88.2131,68.75,1111122 
DISL,ioos:station:DISL:KATA:1,2013-08-05T20:30:00Z,30.2583,-88.2131,72.11,1111122 
DISL,ioos:station:DISL:KATA:1,2013-08-05T21:00:00Z,30.2583,-88.2131,67.42,1111122 
DISL,ioos:station:DISL:KATA:1,2013-08-05T21:30:00Z,30.2583,-88.2131,72.72,1111122 
DISL,ioos:station:DISL:KATA:1,2013-08-05T22:00:00Z,30.2583,-88.2131,75.17,1111122 
DISL,ioos:station:DISL:KATA:1,2013-08-05T22:30:00Z,30.2583,-88.2131,82.9,1111122 
DISL,ioos:station:DISL:KATA:1,2013-08-05T23:00:00Z,30.2583,-88.2131,69.59,1111122 
DISL,ioos:station:DISL:KATA:1,2013-08-05T23:30:00Z,30.2583,-88.2131,79.84,1111122 
DISL,ioos:station:DISL:KATA:1,2013-08-06T00:00:00Z,30.2583,-88.2131,80.1,1111122 
DISL,ioos:station:DISL:KATA:1,2013-08-06T00:30:00Z,30.2583,-88.2131,80.0,1111122 
DISL,ioos:station:DISL:KATA:1,2013-08-06T01:00:00Z,30.2583,-88.2131,79.3,1111122 
DISL,ioos:station:DISL:KATA:1,2013-08-06T01:30:00Z,30.2583,-88.2131,73.56,1111122 
DISL,ioos:station:DISL:KATA:1,2013-08-06T02:00:00Z,30.2583,-88.2131,69.89,1111122 
DISL,ioos:station:DISL:KATA:1,2013-08-06T02:30:00Z,30.2583,-88.2131,77.36,1111122 
DISL,ioos:station:DISL:KATA:1,2013-08-06T03:00:00Z,30.2583,-88.2131,75.33,1111122 
DISL,ioos:station:DISL:KATA:1,2013-08-06T03:30:00Z,30.2583,-88.2131,74.99,1111122 
DISL,ioos:station:DISL:KATA:1,2013-08-06T04:00:00Z,30.2583,-88.2131,74.17,1111122 
DISL,ioos:station:DISL:KATA:1,2013-08-06T04:30:00Z,30.2583,-88.2131,71.96,1111122 
DISL,ioos:station:DISL:KATA:1,2013-08-06T05:00:00Z,30.2583,-88.2131,70.57,1111122 
DISL,ioos:station:DISL:KATA:1,2013-08-06T05:30:00Z,30.2583,-88.2131,73.26,1111122 
DISL,ioos:station:DISL:KATA:1,2013-08-06T06:00:00Z,30.2583,-88.2131,72.58,1111122 
DISL,ioos:station:DISL:KATA:1,2013-08-06T06:30:00Z,30.2583,-88.2131,76.11,1111122 
DISL,ioos:station:DISL:KATA:1,2013-08-06T07:00:00Z,30.2583,-88.2131,77.36,1111122 
DISL,ioos:station:DISL:KATA:1,2013-08-06T07:30:00Z,30.2583,-88.2131,77.7,1111122 
DISL,ioos:station:DISL:KATA:1,2013-08-06T08:00:00Z,30.2583,-88.2131,77.84,1111122 
DISL,ioos:station:DISL:KATA:1,2013-08-06T08:30:00Z,30.2583,-88.2131,76.75,1111122 
DISL,ioos:station:DISL:KATA:1,2013-08-06T09:00:00Z,30.2583,-88.2131,71.12,1111122 
DISL,ioos:station:DISL:KATA:1,2013-08-06T09:30:00Z,30.2583,-88.2131,82.2,1111122 
DISL,ioos:station:DISL:KATA:1,2013-08-06T10:00:00Z,30.2583,-88.2131,81.9,1111122 
DISL,ioos:station:DISL:KATA:1,2013-08-06T10:30:00Z,30.2583,-88.2131,80.2,1111122 
DISL,ioos:station:DISL:KATA:1,2013-08-06T11:00:00Z,30.2583,-88.2131,79.57,1111122 
DISL,ioos:station:DISL:KATA:1,2013-08-06T11:30:00Z,30.2583,-88.2131,80.3,1111122 
DISL,ioos:station:DISL:KATA:1,2013-08-06T12:00:00Z,30.2583,-88.2131,81.3,1111122 
DISL,ioos:station:DISL:KATA:1,2013-08-06T12:30:00Z,30.2583,-88.2131,80.8,1111122 
DISL,ioos:station:DISL:KATA:1,2013-08-06T13:00:00Z,30.2583,-88.2131,82.3,1111122 
DISL,ioos:station:DISL:KATA:1,2013-08-06T13:30:00Z,30.2583,-88.2131,81.1,1111122 
DISL,ioos:station:DISL:KATA:1,2013-08-06T14:00:00Z,30.2583,-88.2131,80.8,1111122 
DISL,ioos:station:DISL:KATA:1,2013-08-06T14:30:00Z,30.2583,-88.2131,79.13,1111122 
DISL,ioos:station:DISL:KATA:1,2013-08-06T15:00:00Z,30.2583,-88.2131,76.21,1111122 
DISL,ioos:station:DISL:KATA:1,2013-08-06T15:30:00Z,30.2583,-88.2131,76.16,1111122 
DISL,ioos:station:DISL:KATA:1,2013-08-06T16:00:00Z,30.2583,-88.2131,74.01,1111122 
DISL,ioos:station:DISL:KATA:1,2013-08-06T16:30:00Z,30.2583,-88.2131,74.11,1111122 
DISL,ioos:station:DISL:KATA:1,2013-08-06T17:00:00Z,30.2583,-88.2131,72.31,1111122 
DISL,ioos:station:DISL:KATA:1,2013-08-06T17:30:00Z,30.2583,-88.2131,71.97,1111122 
DISL,ioos:station:DISL:KATA:1,2013-08-06T18:00:00Z,30.2583,-88.2131,68.71,1111122 
DISL,ioos:station:DISL:KATA:1,2013-08-06T18:30:00Z,30.2583,-88.2131,69.25,1111122 
DISL,ioos:station:DISL:KATA:1,2013-08-06T19:00:00Z,30.2583,-88.2131,70.98,1111122 
DISL,ioos:station:DISL:KATA:1,2013-08-06T19:30:00Z,30.2583,-88.2131,70.99,1111122 
DISL,ioos:station:DISL:KATA:1,2013-08-06T20:00:00Z,30.2583,-88.2131,71.97,1111122 
DISL,ioos:station:DISL:KATA:1,2013-08-06T20:30:00Z,30.2583,-88.2131,70.96,1111122 
DISL,ioos:station:DISL:KATA:1,2013-08-06T21:00:00Z,30.2583,-88.2131,71.8,1111122 
DISL,ioos:station:DISL:KATA:1,2013-08-06T21:30:00Z,30.2583,-88.2131,73.4,1111122 
DISL,ioos:station:DISL:KATA:1,2013-08-06T22:00:00Z,30.2583,-88.2131,71.23,1111122 
DISL,ioos:station:DISL:KATA:1,2013-08-06T22:30:00Z,30.2583,-88.2131,68.55,1111122 
DISL,ioos:station:DISL:KATA:1,2013-08-06T23:00:00Z,30.2583,-88.2131,66.78,1111122 
DISL,ioos:station:DISL:KATA:1,2013-08-06T23:30:00Z,30.2583,-88.2131,66.85,1111122 
DISL,ioos:station:DISL:KATA:1,2013-08-07T00:00:00Z,30.2583,-88.2131,68.04,1111122 